CES3686 ZWAK-ZWTL

Flight info

Callsign CES3686
Flight time 1h 24m
Altitude 31100
Route PAMLI B215 DUBUV
Aircraft B737/M-SDE2E3FGHIJ1RWXY/LB1D1

Departure

Time 2026-05-06 06:11
Airport Aksu Hongqipo Airport (ZWAK)

Arrival

Time 2026-05-06 07:35
Airport Turpan Jiaohe Airport (ZWTL)
Time Latitude Longitude Altitude Speed Heading
2026-05-06 05:53 41.25881 80.29914 3840 ft 0 kts 185°
2026-05-06 05:58 41.25890 80.29915 3841 ft 2 kts 185°
2026-05-06 05:59 41.25905 80.29917 3841 ft 2 kts 185°
2026-05-06 05:59 41.25920 80.29919 3841 ft 2 kts 185°
2026-05-06 05:59 41.25935 80.29925 3841 ft 2 kts 221°
2026-05-06 05:59 41.25943 80.29941 3841 ft 2 kts 254°
2026-05-06 06:00 41.25944 80.29961 3841 ft 2 kts 281°
2026-05-06 06:00 41.25943 80.29972 3841 ft 0 kts 274°
2026-05-06 06:00 41.25943 80.29973 3841 ft 0 kts 274°
2026-05-06 06:04 41.25943 80.29972 3841 ft 0 kts 274°
2026-05-06 06:05 41.25946 80.29919 3841 ft 9 kts 275°
2026-05-06 06:05 41.25952 80.29832 3841 ft 9 kts 274°
2026-05-06 06:05 41.25977 80.29763 3841 ft 8 kts 358°
2026-05-06 06:05 41.26044 80.29771 3841 ft 10 kts
2026-05-06 06:06 41.26086 80.29738 3841 ft 7 kts 279°
2026-05-06 06:06 41.26091 80.29645 3841 ft 16 kts 274°
2026-05-06 06:06 41.26101 80.29503 3841 ft 9 kts 284°
2026-05-06 06:06 41.26158 80.29486 3841 ft 9 kts
2026-05-06 06:07 41.26222 80.29496 3842 ft 9 kts
2026-05-06 06:07 41.26266 80.29455 3842 ft 9 kts 279°
2026-05-06 06:07 41.26274 80.29304 3842 ft 23 kts 273°
2026-05-06 06:07 41.26291 80.29040 3842 ft 30 kts 273°
2026-05-06 06:08 41.26306 80.28767 3842 ft 29 kts 275°
2026-05-06 06:08 41.26323 80.28500 3842 ft 29 kts 275°
2026-05-06 06:08 41.26341 80.28233 3842 ft 29 kts 273°
2026-05-06 06:08 41.26356 80.27964 3842 ft 29 kts 275°
2026-05-06 06:09 41.26374 80.27693 3842 ft 29 kts 274°
2026-05-06 06:09 41.26391 80.27424 3842 ft 25 kts 274°
2026-05-06 06:09 41.26382 80.27335 3842 ft 5 kts 269°
2026-05-06 06:09 41.26395 80.27357 3842 ft 4 kts 86°
2026-05-06 06:10 41.26391 80.27406 3842 ft 5 kts 95°
2026-05-06 06:10 41.26387 80.27467 3842 ft 11 kts 95°
2026-05-06 06:10 41.26359 80.27907 3842 ft 85 kts 94°
2026-05-06 06:10 41.26291 80.28995 3844 ft 146 kts 95°
2026-05-06 06:11 41.26227 80.30288 4492 ft 140 kts 95°
2026-05-06 06:11 41.26131 80.31671 4914 ft 157 kts 96°
2026-05-06 06:11 41.26036 80.33144 5212 ft 156 kts 95°
2026-05-06 06:11 41.25959 80.34560 5681 ft 156 kts 94°
2026-05-06 06:12 41.25753 80.36049 6257 ft 177 kts 115°
2026-05-06 06:12 41.25011 80.37400 7024 ft 191 kts 126°
2026-05-06 06:12 41.24330 80.38984 7776 ft 206 kts 111°
2026-05-06 06:12 41.23877 80.40829 8530 ft 220 kts 105°
2026-05-06 06:13 41.23457 80.42873 9245 ft 241 kts 104°
2026-05-06 06:13 41.22995 80.45141 9650 ft 268 kts 104°
2026-05-06 06:13 41.22484 80.47598 9744 ft 280 kts 105°
2026-05-06 06:13 41.21956 80.50099 9885 ft 292 kts 105°
2026-05-06 06:14 41.21388 80.52775 10701 ft 312 kts 105°
2026-05-06 06:14 41.20782 80.55633 11506 ft 331 kts 105°
2026-05-06 06:14 41.20142 80.58651 12267 ft 350 kts 104°
2026-05-06 06:14 41.19463 80.61845 13036 ft 369 kts 104°
2026-05-06 06:15 41.18753 80.65184 13755 ft 387 kts 105°
2026-05-06 06:15 41.18001 80.68716 14516 ft 402 kts 105°
2026-05-06 06:15 41.17232 80.72321 15241 ft 417 kts 105°
2026-05-06 06:15 41.16435 80.76046 16253 ft 422 kts 105°
2026-05-06 06:16 41.15629 80.79803 17264 ft 427 kts 105°
2026-05-06 06:16 41.14817 80.83585 18255 ft 431 kts 105°
2026-05-06 06:16 41.13984 80.87454 19118 ft 438 kts 105°
2026-05-06 06:16 41.13146 80.91347 19980 ft 445 kts 105°
2026-05-06 06:17 41.12286 80.95328 20840 ft 451 kts 105°
2026-05-06 06:17 41.11421 80.99330 21659 ft 457 kts 105°
2026-05-06 06:17 41.10541 81.03394 22437 ft 463 kts 105°
2026-05-06 06:17 41.09637 81.07559 23198 ft 470 kts 105°
2026-05-06 06:18 41.08730 81.11733 23947 ft 475 kts 105°
2026-05-06 06:18 41.07815 81.15936 24673 ft 481 kts 105°
2026-05-06 06:18 41.06883 81.20205 25372 ft 486 kts 105°
2026-05-06 06:18 41.05938 81.24528 26229 ft 487 kts 105°
2026-05-06 06:19 41.05005 81.28780 27359 ft 481 kts 105°
2026-05-06 06:19 41.04072 81.33028 28307 ft 478 kts 105°
2026-05-06 06:19 41.03154 81.37198 29221 ft 476 kts 105°
2026-05-06 06:19 41.02228 81.41400 30089 ft 474 kts 105°
2026-05-06 06:20 41.01303 81.45590 30927 ft 473 kts 105°
2026-05-06 06:20 41.00381 81.49757 31303 ft 477 kts 105°
2026-05-06 06:20 40.98990 81.58306 31349 ft 471 kts 93°
2026-05-06 06:21 40.99037 81.62578 31349 ft 469 kts 82°
2026-05-06 06:21 40.99656 81.66859 31347 ft 468 kts 74°
2026-05-06 06:21 41.02015 81.74850 31348 ft 466 kts 59°
2026-05-06 06:22 41.05757 81.81911 31362 ft 464 kts 51°
2026-05-06 06:22 41.09887 81.88510 31367 ft 464 kts 49°
2026-05-06 06:23 41.14051 81.95054 31362 ft 463 kts 49°
2026-05-06 06:23 41.18160 82.01638 31358 ft 464 kts 50°
2026-05-06 06:24 41.22239 82.08290 31368 ft 464 kts 50°
2026-05-06 06:24 41.26267 82.14926 31376 ft 463 kts 50°
2026-05-06 06:25 41.30309 82.21622 31376 ft 463 kts 50°
2026-05-06 06:26 41.36348 82.31664 31380 ft 462 kts 50°
2026-05-06 06:26 41.40357 82.38349 31383 ft 461 kts 50°
2026-05-06 06:27 41.44356 82.45030 31382 ft 461 kts 50°
2026-05-06 06:27 41.48356 82.51728 31387 ft 460 kts 50°
2026-05-06 06:28 41.52359 82.58444 31391 ft 461 kts 50°
2026-05-06 06:28 41.56327 82.65118 31400 ft 460 kts 50°
2026-05-06 06:29 41.60317 82.71843 31408 ft 460 kts 50°
2026-05-06 06:29 41.64275 82.78530 31411 ft 461 kts 50°
2026-05-06 06:30 41.68214 82.85310 31411 ft 460 kts 52°
2026-05-06 06:30 41.71748 82.92467 31417 ft 460 kts 56°
2026-05-06 06:31 41.75087 82.99751 31412 ft 461 kts 56°
2026-05-06 06:31 41.78426 83.07069 31414 ft 461 kts 56°
2026-05-06 06:32 41.81784 83.14381 31426 ft 460 kts 56°
2026-05-06 06:32 41.85160 83.21695 31439 ft 460 kts 56°
2026-05-06 06:33 41.88525 83.28973 31450 ft 459 kts 56°
2026-05-06 06:33 41.91895 83.36267 31456 ft 458 kts 56°
2026-05-06 06:34 41.95262 83.43566 31456 ft 459 kts 56°
2026-05-06 06:34 41.98621 83.50863 31454 ft 458 kts 56°
2026-05-06 06:35 42.01951 83.58116 31452 ft 458 kts 56°
2026-05-06 06:35 42.05295 83.65417 31461 ft 457 kts 56°
2026-05-06 06:36 42.08624 83.72704 31471 ft 458 kts 56°
2026-05-06 06:36 42.11947 83.79996 31488 ft 457 kts 56°
2026-05-06 06:37 42.15257 83.87277 31486 ft 457 kts 56°
2026-05-06 06:37 42.18585 83.94614 31479 ft 456 kts 56°
2026-05-06 06:38 42.21910 84.01922 31485 ft 456 kts 55°
2026-05-06 06:38 42.25408 84.08981 31490 ft 456 kts 53°
2026-05-06 06:39 42.29035 84.16000 31491 ft 456 kts 53°
2026-05-06 06:39 42.32677 84.23071 31494 ft 456 kts 53°
2026-05-06 06:40 42.36269 84.30118 31504 ft 456 kts 53°
2026-05-06 06:40 42.39819 84.37132 31504 ft 454 kts 53°
2026-05-06 06:41 42.43401 84.44245 31494 ft 455 kts 53°
2026-05-06 06:41 42.46950 84.51318 31503 ft 454 kts 53°
2026-05-06 06:42 42.50487 84.58385 31503 ft 454 kts 53°
2026-05-06 06:42 42.54027 84.65477 31515 ft 454 kts 54°
2026-05-06 06:43 42.57564 84.72578 31521 ft 454 kts 54°
2026-05-06 06:43 42.61095 84.79684 31525 ft 454 kts 54°
2026-05-06 06:44 42.64610 84.86775 31516 ft 454 kts 54°
2026-05-06 06:44 42.68129 84.93891 31535 ft 453 kts 54°
2026-05-06 06:45 42.71637 85.01000 31550 ft 453 kts 54°
2026-05-06 06:45 42.75160 85.08157 31571 ft 453 kts 54°
2026-05-06 06:46 42.78648 85.15262 31577 ft 453 kts 54°
2026-05-06 06:46 42.82156 85.22423 31584 ft 452 kts 54°
2026-05-06 06:47 42.85632 85.29536 31595 ft 452 kts 54°
2026-05-06 06:47 42.89121 85.36694 31594 ft 452 kts 54°
2026-05-06 06:48 42.92589 85.43823 31627 ft 452 kts 54°
2026-05-06 06:48 42.96067 85.50992 31642 ft 452 kts 54°
2026-05-06 06:49 42.99522 85.58128 31648 ft 452 kts 54°
2026-05-06 06:49 43.03011 85.65353 31657 ft 451 kts 55°
2026-05-06 06:50 43.06442 85.72478 31671 ft 452 kts 55°
2026-05-06 06:50 43.09910 85.79694 31652 ft 452 kts 55°
2026-05-06 06:51 43.13364 85.86900 31637 ft 451 kts 55°
2026-05-06 06:51 43.16808 85.94102 31626 ft 451 kts 55°
2026-05-06 06:52 43.20237 86.01270 31629 ft 452 kts 55°
2026-05-06 06:52 43.23725 86.08497 31633 ft 453 kts 54°
2026-05-06 06:53 43.27205 86.15700 31639 ft 452 kts 54°
2026-05-06 06:53 43.30673 86.22892 31657 ft 452 kts 54°
2026-05-06 06:54 43.34154 86.30051 31631 ft 452 kts 54°
2026-05-06 06:54 43.37660 86.37251 31618 ft 452 kts 54°
2026-05-06 06:55 43.41135 86.44409 31624 ft 453 kts 54°
2026-05-06 06:55 43.44637 86.51617 31627 ft 452 kts 54°
2026-05-06 06:56 43.48147 86.58820 31588 ft 452 kts 54°
2026-05-06 06:56 43.51656 86.66035 31569 ft 453 kts 55°
2026-05-06 06:57 43.55154 86.73256 31537 ft 453 kts 55°
2026-05-06 06:57 43.58620 86.80523 31518 ft 454 kts 55°
2026-05-06 06:58 43.62059 86.87806 31475 ft 453 kts 56°
2026-05-06 06:58 43.65507 86.95128 31480 ft 454 kts 56°
2026-05-06 06:59 43.68938 87.02424 31467 ft 454 kts 56°
2026-05-06 06:59 43.72353 87.09699 31450 ft 454 kts 56°
2026-05-06 07:00 43.75797 87.17053 31401 ft 454 kts 56°
2026-05-06 07:00 43.79216 87.24380 30891 ft 455 kts 56°
2026-05-06 07:00 43.80933 87.28069 30351 ft 453 kts 56°
2026-05-06 07:01 43.82632 87.31722 29816 ft 453 kts 56°
2026-05-06 07:01 43.84331 87.35381 29281 ft 456 kts 56°
2026-05-06 07:01 43.86066 87.39122 28741 ft 458 kts 56°
2026-05-06 07:01 43.87770 87.42799 28211 ft 459 kts 56°
2026-05-06 07:02 43.89492 87.46520 27678 ft 461 kts 56°
2026-05-06 07:02 43.91238 87.50299 27142 ft 463 kts 56°
2026-05-06 07:02 43.93033 87.54013 26606 ft 463 kts 53°
2026-05-06 07:02 43.94928 87.57615 26080 ft 465 kts 52°
2026-05-06 07:03 43.96897 87.61185 25549 ft 467 kts 51°
2026-05-06 07:03 43.98875 87.64711 25034 ft 465 kts 50°
2026-05-06 07:03 44.00859 87.68239 24480 ft 462 kts 51°
2026-05-06 07:03 44.02838 87.71775 23922 ft 459 kts 51°
2026-05-06 07:04 44.04765 87.75244 23381 ft 455 kts 51°
2026-05-06 07:04 44.06693 87.78737 22830 ft 453 kts 51°
2026-05-06 07:04 44.08599 87.82209 22285 ft 449 kts 51°
2026-05-06 07:04 44.10459 87.85709 21745 ft 447 kts 54°
2026-05-06 07:05 44.12090 87.89361 21206 ft 445 kts 60°
2026-05-06 07:05 44.13307 87.93253 20678 ft 443 kts 69°
2026-05-06 07:05 44.14074 87.97405 20151 ft 442 kts 78°
2026-05-06 07:05 44.14466 88.01653 19622 ft 441 kts 83°
2026-05-06 07:06 44.14564 88.05918 19106 ft 439 kts 90°
2026-05-06 07:06 44.14213 88.10121 18604 ft 440 kts 99°
2026-05-06 07:06 44.13464 88.14285 18093 ft 438 kts 104°
2026-05-06 07:06 44.12547 88.18283 17599 ft 434 kts 107°
2026-05-06 07:07 44.11562 88.22212 17124 ft 430 kts 108°
2026-05-06 07:07 44.10554 88.26104 16976 ft 427 kts 108°
2026-05-06 07:07 44.09537 88.30015 16974 ft 429 kts 108°
2026-05-06 07:07 44.08535 88.33901 16970 ft 429 kts 108°
2026-05-06 07:08 44.07538 88.37798 16967 ft 428 kts 107°
2026-05-06 07:08 44.06536 88.41740 16969 ft 429 kts 107°
2026-05-06 07:08 44.05548 88.45649 16966 ft 428 kts 107°
2026-05-06 07:08 44.04562 88.49557 16966 ft 428 kts 107°
2026-05-06 07:09 44.03580 88.53450 16969 ft 428 kts 107°
2026-05-06 07:09 44.02602 88.57326 16969 ft 429 kts 107°
2026-05-06 07:09 44.01616 88.61228 16969 ft 428 kts 107°
2026-05-06 07:09 44.00619 88.65166 16971 ft 429 kts 108°
2026-05-06 07:10 43.99624 88.69088 16971 ft 428 kts 108°
2026-05-06 07:10 43.98633 88.72985 16976 ft 428 kts 108°
2026-05-06 07:10 43.97646 88.76862 16976 ft 427 kts 108°
2026-05-06 07:10 43.96658 88.80733 16973 ft 427 kts 108°
2026-05-06 07:11 43.95699 88.84618 16968 ft 426 kts 107°
2026-05-06 07:11 43.94794 88.88532 16966 ft 425 kts 105°
2026-05-06 07:11 43.93916 88.92478 16964 ft 426 kts 105°
2026-05-06 07:11 43.93051 88.96400 16959 ft 426 kts 105°
2026-05-06 07:12 43.92181 89.00334 16955 ft 427 kts 105°
2026-05-06 07:12 43.91298 89.04288 16952 ft 427 kts 105°
2026-05-06 07:12 43.90424 89.08173 16947 ft 426 kts 105°
2026-05-06 07:12 43.89537 89.12088 16947 ft 427 kts 105°
2026-05-06 07:13 43.88638 89.16032 16947 ft 426 kts 105°
2026-05-06 07:13 43.87746 89.19930 16946 ft 426 kts 105°
2026-05-06 07:13 43.86843 89.23864 16942 ft 426 kts 105°
2026-05-06 07:13 43.85949 89.27752 16937 ft 425 kts 105°
2026-05-06 07:14 43.85044 89.31681 16938 ft 425 kts 105°
2026-05-06 07:14 43.84140 89.35599 16942 ft 426 kts 105°
2026-05-06 07:14 43.83239 89.39497 16941 ft 426 kts 106°
2026-05-06 07:14 43.82058 89.43237 16938 ft 428 kts 118°
2026-05-06 07:15 43.80133 89.46416 16940 ft 431 kts 136°
2026-05-06 07:15 43.77593 89.48660 16947 ft 437 kts 154°
2026-05-06 07:15 43.74677 89.49769 16950 ft 439 kts 172°
2026-05-06 07:15 43.71624 89.49654 16965 ft 439 kts 188°
2026-05-06 07:16 43.68677 89.48621 16979 ft 440 kts 198°
2026-05-06 07:16 43.65791 89.47178 16983 ft 440 kts 201°
2026-05-06 07:16 43.62962 89.45583 16988 ft 439 kts 202°
2026-05-06 07:16 43.60115 89.43895 16995 ft 442 kts 203°
2026-05-06 07:17 43.57319 89.42207 16999 ft 440 kts 203°
2026-05-06 07:17 43.54516 89.40501 17011 ft 439 kts 204°
2026-05-06 07:17 43.51720 89.38799 17020 ft 439 kts 204°
2026-05-06 07:17 43.48922 89.37093 17012 ft 442 kts 203°
2026-05-06 07:18 43.46117 89.35377 16997 ft 439 kts 203°
2026-05-06 07:18 43.43310 89.33655 16985 ft 441 kts 203°
2026-05-06 07:18 43.40548 89.31955 16967 ft 412 kts 204°
2026-05-06 07:18 43.38047 89.30413 16977 ft 374 kts 204°
2026-05-06 07:19 43.35774 89.29012 16792 ft 348 kts 204°
2026-05-06 07:19 43.33620 89.27680 16314 ft 335 kts 204°
2026-05-06 07:19 43.31510 89.26392 15807 ft 325 kts 202°
2026-05-06 07:19 43.29454 89.25201 15300 ft 316 kts 202°
2026-05-06 07:20 43.27455 89.24071 14795 ft 308 kts 201°
2026-05-06 07:20 43.25545 89.22996 14305 ft 283 kts 201°
2026-05-06 07:20 43.23811 89.22018 13835 ft 254 kts 201°
2026-05-06 07:20 43.22265 89.21143 13362 ft 235 kts 201°
2026-05-06 07:21 43.20771 89.20298 12702 ft 230 kts 202°
2026-05-06 07:21 43.19305 89.19475 12001 ft 226 kts 201°
2026-05-06 07:21 43.17867 89.18670 11306 ft 222 kts 201°
2026-05-06 07:21 43.16443 89.17874 10609 ft 220 kts 201°
2026-05-06 07:22 43.15044 89.17094 9920 ft 219 kts 201°
2026-05-06 07:22 43.13633 89.16305 9232 ft 224 kts 201°
2026-05-06 07:22 43.12173 89.15482 8535 ft 228 kts 202°
2026-05-06 07:22 43.10735 89.14672 8052 ft 219 kts 201°
2026-05-06 07:23 43.09299 89.14169 7930 ft 203 kts 184°
2026-05-06 07:23 43.07962 89.14066 7935 ft 189 kts 181°
2026-05-06 07:23 43.06627 89.13975 7732 ft 190 kts 182°
2026-05-06 07:23 43.05310 89.13884 7337 ft 189 kts 181°
2026-05-06 07:24 43.04008 89.13796 6932 ft 188 kts 182°
2026-05-06 07:24 43.02700 89.13709 6526 ft 187 kts 181°
2026-05-06 07:24 43.01417 89.13622 6127 ft 185 kts 181°
2026-05-06 07:24 43.00119 89.13532 5718 ft 184 kts 181°
2026-05-06 07:25 42.98854 89.13444 5334 ft 183 kts 182°
2026-05-06 07:25 42.97586 89.13357 4947 ft 182 kts 181°
2026-05-06 07:25 42.96344 89.13095 4539 ft 184 kts 201°
2026-05-06 07:25 42.95410 89.11926 4125 ft 184 kts 242°
2026-05-06 07:26 42.95212 89.10226 3741 ft 183 kts 272°
2026-05-06 07:26 42.95280 89.08508 3344 ft 183 kts 272°
2026-05-06 07:26 42.95313 89.06785 3003 ft 179 kts 268°
2026-05-06 07:26 42.95268 89.05107 2948 ft 174 kts 266°
2026-05-06 07:27 42.95220 89.03442 2965 ft 175 kts 267°
2026-05-06 07:27 42.95192 89.01769 2971 ft 176 kts 268°
2026-05-06 07:27 42.95179 89.00096 2972 ft 175 kts 269°
2026-05-06 07:27 42.95179 88.98418 2879 ft 176 kts 269°
2026-05-06 07:28 42.95179 88.96773 2754 ft 173 kts 269°
2026-05-06 07:28 42.95177 88.95127 2633 ft 174 kts 269°
2026-05-06 07:28 42.95200 88.91811 2371 ft 173 kts 276°
2026-05-06 07:29 42.95714 88.90367 2242 ft 172 kts 317°
2026-05-06 07:29 42.96810 88.89755 2121 ft 172 kts 357°
2026-05-06 07:29 42.98001 88.89716 2007 ft 164 kts
2026-05-06 07:29 42.99059 88.89651 1994 ft 143 kts 359°
2026-05-06 07:30 43.00028 88.89579 1977 ft 136 kts 359°
2026-05-06 07:30 43.00671 88.89531 1990 ft 136 kts 359°
2026-05-06 07:30 43.01937 88.89436 2002 ft 136 kts 359°
2026-05-06 07:30 43.02871 88.89516 2003 ft 133 kts 25°
2026-05-06 07:31 43.03451 88.90427 2011 ft 129 kts 80°
2026-05-06 07:31 43.03480 88.91639 2014 ft 128 kts 91°
2026-05-06 07:31 43.03429 88.92857 2013 ft 127 kts 98°
2026-05-06 07:31 43.03325 88.94069 2006 ft 128 kts 98°
2026-05-06 07:32 43.03223 88.95270 2004 ft 128 kts 98°
2026-05-06 07:32 43.03119 88.96486 2003 ft 127 kts 98°
2026-05-06 07:32 43.03033 88.97692 2003 ft 128 kts 93°
2026-05-06 07:32 43.03026 88.98907 2007 ft 128 kts 92°
2026-05-06 07:33 43.02998 89.00118 1986 ft 128 kts 94°
2026-05-06 07:33 43.02998 89.01334 1839 ft 130 kts 90°
2026-05-06 07:33 43.03027 89.02561 1646 ft 129 kts 90°
2026-05-06 07:33 43.03039 89.03780 1461 ft 127 kts 91°
2026-05-06 07:34 43.03056 89.05008 1309 ft 129 kts 91°
2026-05-06 07:34 43.03059 89.06215 1147 ft 124 kts 91°
2026-05-06 07:34 43.03070 89.07416 1019 ft 129 kts 91°
2026-05-06 07:34 43.03081 89.08652 902 ft 127 kts 91°
2026-05-06 07:35 43.03086 89.09736 887 ft 91 kts 88°
2026-05-06 07:35 43.03092 89.10375 888 ft 45 kts 88°
2026-05-06 07:35 43.03094 89.10649 888 ft 13 kts 112°
2026-05-06 07:35 43.03011 89.10672 887 ft 13 kts 179°
2026-05-06 07:36 43.02916 89.10674 887 ft 13 kts 179°
2026-05-06 07:36 43.02871 89.10672 886 ft 1 kts 201°
2026-05-06 07:36 43.02866 89.10652 886 ft 3 kts 267°
2026-05-06 07:36 43.02864 89.10613 886 ft 4 kts 266°
2026-05-06 07:37 43.02863 89.10564 886 ft 5 kts 270°
2026-05-06 07:37 43.02864 89.10509 886 ft 6 kts 271°
2026-05-06 07:37 43.02864 89.10446 886 ft 6 kts 269°
2026-05-06 07:37 43.02863 89.10375 886 ft 7 kts 269°
2026-05-06 07:38 43.02862 89.10298 886 ft 8 kts 269°
2026-05-06 07:38 43.02861 89.10213 886 ft 9 kts 269°
2026-05-06 07:38 43.02860 89.10119 886 ft 10 kts 269°
2026-05-06 07:38 43.02822 89.10061 885 ft 9 kts 179°
2026-05-06 07:39 43.02795 89.10062 885 ft 0 kts 179°